Location: Nashville
(36.1660°N, 86.7840°W)
Time: 21:20:23
(UTC-06:00)

Transit 2A - All Passes

Search period start: 22 January 2022 00:00
Search period end: 01 February 2022 00:00
Orbit: 591 x 967 km, 66.7° (Epoch: 22 January)

Date Brightness Start Highest point End Pass type
(mag) Time Alt. Az. Time Alt. Az. Time Alt. Az.
22 Jan - 10:17:05 10° SSE 10:21:33 22° ESE 10:26:13 10° NE daylight
22 Jan - 11:58:21 10° SW 12:04:17 56° WNW 12:10:34 10° NNE daylight
22 Jan - 13:47:17 10° NW 13:49:00 11° NW 13:50:43 10° NNW daylight
22 Jan - 19:07:29 10° NNE 19:10:16 13° NE 19:12:57 10° ENE visible
22 Jan - 20:48:38 10° NNW 20:54:40 75° ENE 21:00:03 10° SSE visible
22 Jan - 22:34:29 10° WNW 22:36:56 13° W 22:39:19 10° SW night (unlit)
23 Jan - 09:44:27 10° SE 09:47:36 15° E 09:50:50 10° ENE daylight
23 Jan - 11:23:57 10° SSW 11:30:00 79° WNW 11:36:25 10° NNE daylight
23 Jan - 13:10:49 10° WNW 13:14:18 15° NW 13:17:52 10° N daylight
23 Jan - 20:14:29 10° NNW 20:20:21 52° ENE 20:25:38 10° SE visible
23 Jan - 21:58:54 10° WNW 22:03:01 20° WSW 22:06:51 10° SSW night (unlit)
24 Jan - 10:49:46 10° SSW 10:55:46 74° ESE 11:02:08 10° NNE daylight
24 Jan - 12:35:11 10° W 12:39:42 20° NW 12:44:19 10° N daylight
24 Jan - 19:40:27 10° NNW 19:45:57 36° NE 19:50:59 10° ESE visible
24 Jan - 21:23:59 10° NW 21:29:02 30° WSW 21:33:38 10° SSW visible
25 Jan - 10:15:50 10° S 10:21:37 51° ESE 10:27:44 10° NE daylight
25 Jan - 11:59:58 10° WSW 12:05:10 28° NW 12:10:32 10° N daylight
25 Jan - 19:06:32 10° N 19:11:30 26° NE 19:16:04 10° ESE visible
25 Jan - 20:49:22 10° NW 20:54:58 46° WSW 21:00:01 10° S visible
26 Jan - 09:42:08 10° S 09:47:31 35° ESE 09:53:11 10° NE daylight
26 Jan - 11:25:02 10° WSW 11:30:42 38° NW 11:36:37 10° NNE daylight
26 Jan - 18:32:47 10° N 18:36:57 19° NE 18:40:51 10° E visible
26 Jan - 20:14:56 10° NNW 20:20:51 69° WSW 20:26:07 10° SSE visible
27 Jan - 09:08:48 10° SSE 09:13:30 24° ESE 09:18:23 10° NE daylight
27 Jan - 10:50:22 10° SW 10:56:19 53° WNW 11:02:33 10° NNE daylight
27 Jan - 12:39:59 10° NW 12:41:05 10° NW 12:42:10 10° NNW daylight
27 Jan - 17:59:21 10° NNE 18:02:18 14° NE 18:05:10 10° ENE visible
27 Jan - 19:40:40 10° NNW 19:46:38 81° ENE 19:51:58 10° SSE visible
27 Jan - 21:27:03 10° W 21:28:50 11° W 21:30:34 10° WSW visible
28 Jan - 08:36:00 10° SE 08:39:31 16° ESE 08:43:09 10° ENE daylight
28 Jan - 10:15:54 10° SSW 10:22:00 74° WNW 10:28:24 10° NNE daylight
28 Jan - 12:03:05 10° WNW 12:06:22 14° NW 12:09:42 10° N daylight
28 Jan - 19:06:30 10° NNW 19:12:20 55° ENE 19:17:36 10° SE visible
28 Jan - 20:51:07 10° WNW 20:54:55 18° WSW 20:58:29 10° SW visible
29 Jan - 09:41:42 10° SSW 09:47:45 79° ESE 09:54:09 10° NNE daylight
29 Jan - 11:27:22 10° W 11:31:45 19° NW 11:36:13 10° N daylight
29 Jan - 18:32:26 10° NNW 18:37:57 38° NE 18:42:58 10° ESE visible
29 Jan - 20:16:07 10° NW 20:20:56 28° WSW 20:25:22 10° SSW visible
30 Jan - 09:07:41 10° S 09:13:35 55° ESE 09:19:47 10° NE daylight
30 Jan - 10:52:05 10° WSW 10:57:12 26° NW 11:02:28 10° N daylight
30 Jan - 17:58:30 10° N 18:03:30 27° NE 18:08:07 10° ESE visible
30 Jan - 19:41:27 10° NW 19:46:54 42° WSW 19:51:49 10° S visible
31 Jan - 08:33:58 10° S 08:39:29 38° ESE 08:45:16 10° NE daylight
31 Jan - 10:17:06 10° WSW 10:22:44 36° NW 10:28:34 10° N daylight
31 Jan - 17:24:43 10° N 17:28:58 20° NE 17:32:57 10° E daylight
31 Jan - 19:07:00 10° NNW 19:12:47 64° WSW 19:17:58 10° SSE visible
